Regional Weather Roundup
Issued by NWS Upton, NY

Current Version | Previous Version | Graphics & Text | Print | Product List | Glossary Off
Versions: 1 2 3 4 5 6 7 8 9 10 11 12 13 14 15 16 17 18 19 20 21 22 23 24 25 26 27 28 29 30 31 32 33 34 35 36 37 38 39 40 41 42 43 44 45 46 47 48 49 50

634
ASUS41 KOKX 180108
RWROKX

REGIONAL WEATHER ROUNDUP
NATIONAL WEATHER SERVICE NEW YORK NY
900 PM EDT THU AUG 17 2017

NOTE: "FAIR" INDICATES FEW OR NO CLOUDS BELOW 12,000 FEET WITH NO
SIGNIFICANT WEATHER AND/OR OBSTRUCTIONS TO VISIBILITY.

NYZ071-072-176-178-NJZ106-104-180200-
NEW YORK CITY METRO AREA

CITY           SKY/WX    TMP DP  RH WIND       PRES   REMARKS
Central Park   PTCLDY    74  68  81 VRB5      30.01S
Bronx Bot Gard   N/A     73  64  73 S3        29.99S
LaGuardia APRT MOCLDY    75  69  81 SE7       29.98R
Kennedy INTL   MOCLDY    74  72  93 SE8       29.99S
Breezy Point     N/A     73 N/A N/A SE7         N/A
Newark/Liberty MOCLDY    74  70  87 SE8       29.97S
Teterboro      CLOUDY    76  66  71 S6        29.96S
$$

NYZ177-179-078>081-180200-
LONG ISLAND NEW YORK

CITY           SKY/WX    TMP DP  RH WIND       PRES   REMARKS
Jones Beach      N/A     72 N/A N/A SE6         N/A
Matinecock PT    N/A     72 N/A N/A S1          N/A
Farmingdale    MOCLDY    73  68  84 SE6       30.00S
MacArthur/ISP  PTCLDY    72  67  84 S8        30.00R
Shirley        CLOUDY    71  65  81 SE3       30.01R
Mt Sinai Harb    N/A    N/A N/A N/A S8          N/A
Westhampton    CLEAR     66  60  81 CALM      30.02S
East Hampton   FAIR      64  60  85 CALM      30.01S
Montauk          N/A     70  64  81 CALM      30.03R
$$

NYZ052-065-067-180200-
HUDSON VALLEY

CITY           SKY/WX    TMP DP  RH WIND       PRES   REMARKS
White Plains   CLEAR     70  61  73 S3        29.99S
Larchmont Harb   N/A     73 N/A N/A SE6         N/A
Croton On Huds   N/A     75 N/A N/A SE3         N/A
Newburgh       PTCLDY    75  64  69 VRB6      29.99R
Montgomery     MOCLDY    72  66  81 CALM      29.97R
Poughkeepsie   MOCLDY    74  61  63 SE7       29.96R
Albany         CLOUDY    71  54  54 CALM      29.96S
$$

NJZ001-105-106-008-010-013-015-019>022-104-180200-
NEW JERSEY

CITY           SKY/WX    TMP DP  RH WIND       PRES   REMARKS
Newark/Liberty MOCLDY    74  70  87 SE8       29.97S
Teterboro      CLOUDY    76  66  71 S6        29.96S
Caldwell       PTCLDY    74  68  81 CALM      29.98S
Somerville     MOCLDY    75  69  81 CALM      29.95S
Linden         FAIR      75  69  82 CALM      29.98S
Perth Amboy      N/A     75 N/A N/A E8          N/A
Sussex         CLOUDY    74  68  81 CALM      29.97S
Andover          N/A     74  66  76 SW3       29.98S
Trenton        PTCLDY    79  69  71 S7        29.96S
Millville      CLOUDY    77  74  90 SE5       29.96F
Atlantic City  CLOUDY    79  74  84 S7        29.97F
Wrightstown    PTCLDY    75  68  78 SE3       29.94S
Toms River     CLEAR     75  72  90 SE5       29.98F
Belmar         CLEAR     74  72  93 SE5       29.99S
$$

PAZ047>061-062-071-180200-
EASTERN PENNSYLVANIA

CITY           SKY/WX    TMP DP  RH WIND       PRES   REMARKS
Philadelphia   MOCLDY    79  70  74 S7        29.95F
Allentown      CLOUDY    81  68  64 SE7       29.95S
Scranton       CLOUDY    79  65  62 S8        29.95R
$$

CTZ002-004>006-009-010-012-RIZ004-006-007-MAZ004-011-015-180200-
SOUTHERN NEW ENGLAND
 IN CT

CITY           SKY/WX    TMP DP  RH WIND       PRES   REMARKS
Bradley INTL   MOCLDY    73  58  59 S9        29.99R
Hartford       PTCLDY    73  59  61 S6        29.99R
Danbury        PTCLDY    72  61  68 S3        30.01R
Wtrbury/Oxford CLOUDY    68  59  73 S6        30.02S
Norwalk Harbor   N/A     72 N/A N/A S8          N/A
Bridgeport     PTCLDY    73  62  68 S6        29.99S
Meriden        PTCLDY    69  59  70 CALM      30.00R
New Haven      PTCLDY    72  60  66 S7        30.00S
Chester        NOT AVBL
Groton         CLEAR     68  61  78 SW5       30.01R
Wilimantic     CLEAR     70  59  68 CALM      30.01R

 IN RI

CITY           SKY/WX    TMP DP  RH WIND       PRES   REMARKS
Providence     MOCLDY    68  57  68 S5        30.01R
Block Island   CLEAR     69  63  81 S7        30.02S
Westerly       CLEAR     68  61  78 CALM      30.02R
 IN MA

CITY           SKY/WX    TMP DP  RH WIND       PRES   REMARKS
Boston         CLOUDY    72  54  53 S9        29.99R
Worcester      MOCLDY    65  54  67 S5        30.03R
Westfield      CLOUDY    67  62  84 S3        29.98R
Provincetown   CLOUDY    69  58  67 SW12      30.01R
Nantucket      MOCLDY    62  58  86 S7        30.03R
$$

ANZ330-335-338-340-345-350-353-355-180200-
COASTAL MARINE OBSERVATIONS


STATION/POSITION TIME  SKY/WX   TEMP    WIND        PRES    VSBY  WAVE
                                AIR SEA DIR/SP/G                  HT/PER
                 (UTC)          (F)     (DEG/KT/KT) (MB)    (MI)  (FT/S)
NY HARB ENTRANCE 2350            74 75  140/ 10/ 12 1014.8          2/ 8
GREAT SOUTH BAY  0030            73 79  160/  8/ 10   N/A
23 SSW MONTAUK P 2350            72 72              1016.7          2/ 8
15 E BARNEGAT LI 0030               77                N/A           3/ 7
HUDSON CANYON    2350            75 76  210/  4/  6 1015.4          3/ 7
KINGS POINT      0030            74 74  190/  7/ 10 1015.2
EXECUTION ROCKS  NOT AVBL
WESTERN LI SOUND NOT AVBL
CENTRAL LI SOUND NOT AVBL
EASTERN LI SOUND NOT AVBL
ROBBINS REEF     0048                   140/ 12/ 14 1015.7
$$


>>>>>>>>>>>>>>>>>>>>>>>>>>>> KEY <<<<<<<<<<<<<<<<<<<<<<<<<<<
>                                                          <
>     SKY/WX - Sky Condition/Present Weather               <
>     TMP    - Temperature in Fahrenheit                   <
>     DP     - Dew Point in Fahrenheit                     <
>     RH     - Relative Humidity in Percent                <
>     WIND   - Direction (from) and Speed in MPH           <
>     PRES   - Mean Sea Level Pressure (inches of Hg)      <
>     WCI    - Wind Chill Index                            <
>     VSB    - VISIBILITY IN MILES                         <
>     HX     - HEAT INDEX                                  <
>     TC     - TEMPERATURE IN CELSIUS                      <
>     VRB    - VARIABLE WIND DIRECTION                     <
>                                                          <
>>>>>>>>>>>>>>>>>>>>>>>>>>>> KEY <<<<<<<<<<<<<<<<<<<<<<<<<<<




USA.gov is the U.S. government's official web portal to all federal, state and local government web resources and services.